• Em Portugal
  • Lista de países
  • Para 7 dias
  • Temperatura da água
  • Mapas de satélite
  • Mapa do tempo
  • Widgets de tempo
  • user-avatar
    Iniciar Sessão

    Previsão horária em Encamp

    Hoje, 16 Agosto, Quinta-feira

    Tempo Temperatura Precipitação Vento Pressão Humidade
    00:00 +12°C° 0 mm 1 m/s 626 mmHg 80%
    01:00 +11°C° 0 mm 1 m/s 626 mmHg 80%
    02:00 +11°C° 0 mm 1 m/s 626 mmHg 81%
    03:00 +11°C° 0 mm 1 m/s 626 mmHg 81%
    04:00 +12°C° 0 mm 1 m/s 626 mmHg 80%
    05:00 +12°C° 0 mm 1 m/s 626 mmHg 79%
    06:00 +12°C° 0 mm 1 m/s 626 mmHg 79%
    07:00 +15°C° 0 mm 1 m/s 627 mmHg 70%
    08:00 +18°C° 0 mm 1 m/s 628 mmHg 61%
    09:00 +21°C° 0 mm 1 m/s 629 mmHg 52%
    10:00 +21°C° 0,1 mm 1 m/s 629 mmHg 51%
    11:00 +22°C° 0,1 mm 1 m/s 629 mmHg 51%
    12:00 +21°C° 0,1 mm 2 m/s 629 mmHg 50%
    13:00 +22°C° 0,6 mm 1 m/s 628 mmHg 51%
    14:00 +22°C° 0,6 mm 1 m/s 628 mmHg 52%
    15:00 +22°C° 0,6 mm 1 m/s 628 mmHg 53%
    16:00 +21°C° 0,7 mm 1 m/s 628 mmHg 58%
    17:00 +20°C° 0,7 mm 1 m/s 627 mmHg 62%
    18:00 +19°C° 0,7 mm 1 m/s 627 mmHg 67%
    19:00 +16°C° 0,5 mm 1 m/s 627 mmHg 73%
    20:00 +15°C° 0,5 mm 1 m/s 627 mmHg 79%
    21:00 +13°C° 0,5 mm 1 m/s 626 mmHg 84%
    22:00 +13°C° 1 mm 1 m/s 626 mmHg 86%
    23:00 +13°C° 1 mm 1 m/s 626 mmHg 88%

    Amanhã, 17 Agosto, Sexta-feira

    Tempo Temperatura Precipitação Vento Pressão Humidade
    00:00 +12°C° 1 mm 1 m/s 627 mmHg 90%
    01:00 +12°C° 0,3 mm 1 m/s 626 mmHg 90%
    02:00 +12°C° 0,3 mm 1 m/s 626 mmHg 90%
    03:00 +12°C° 0,3 mm 1 m/s 626 mmHg 90%
    04:00 +12°C° 0,2 mm 1 m/s 627 mmHg 90%
    05:00 +12°C° 0,2 mm 1 m/s 627 mmHg 90%
    06:00 +12°C° 0,2 mm 1 m/s 627 mmHg 90%
    07:00 +13°C° 0,1 mm 2 m/s 628 mmHg 84%
    08:00 +15°C° 0,1 mm 2 m/s 628 mmHg 78%
    09:00 +16°C° 0,1 mm 2 m/s 629 mmHg 73%
    10:00 +16°C° 0,4 mm 2 m/s 629 mmHg 70%
    11:00 +17°C° 0,4 mm 2 m/s 629 mmHg 68%
    12:00 +17°C° 0,4 mm 2 m/s 629 mmHg 65%
    13:00 +17°C° 0,4 mm 2 m/s 629 mmHg 65%
    14:00 +17°C° 0,4 mm 2 m/s 629 mmHg 66%
    15:00 +17°C° 0,4 mm 2 m/s 629 mmHg 66%
    16:00 +16°C° 0,3 mm 2 m/s 629 mmHg 71%
    17:00 +15°C° 0,3 mm 2 m/s 628 mmHg 76%
    18:00 +14°C° 0,3 mm 2 m/s 628 mmHg 81%
    19:00 +14°C° 0,1 mm 2 m/s 628 mmHg 83%
    20:00 +13°C° 0,1 mm 2 m/s 628 mmHg 86%
    21:00 +12°C° 0,1 mm 2 m/s 628 mmHg 88%
    22:00 +10°C° 0 mm 2 m/s 628 mmHg 89%
    23:00 +9°C° 0 mm 2 m/s 628 mmHg 89%

    Depois de amanhã, 18 Agosto, Sábado

    Tempo Temperatura Precipitação Vento Pressão Humidade
    00:00 +9°C° 0 mm 2 m/s 628 mmHg 89%
    01:00 +8°C° 0 mm 2 m/s 628 mmHg 89%
    02:00 +8°C° 0 mm 2 m/s 627 mmHg 88%
    03:00 +7°C° 0 mm 2 m/s 627 mmHg 88%
    04:00 +7°C° 0 mm 2 m/s 627 mmHg 85%
    05:00 +7°C° 0 mm 2 m/s 627 mmHg 83%
    06:00 +7°C° 0 mm 2 m/s 627 mmHg 81%
    07:00 +10°C° 0 mm 2 m/s 628 mmHg 69%
    08:00 +13°C° 0 mm 2 m/s 630 mmHg 57%
    09:00 +16°C° 0 mm 2 m/s 631 mmHg 46%
    10:00 +17°C° 0 mm 2 m/s 631 mmHg 42%
    11:00 +18°C° 0 mm 2 m/s 631 mmHg 39%
    12:00 +20°C° 0 mm 2 m/s 631 mmHg 36%
    13:00 +20°C° 0 mm 2 m/s 631 mmHg 37%
    14:00 +20°C° 0 mm 2 m/s 631 mmHg 38%
    15:00 +20°C° 0 mm 2 m/s 631 mmHg 39%
    16:00 +18°C° 0 mm 2 m/s 630 mmHg 46%
    17:00 +17°C° 0 mm 2 m/s 630 mmHg 53%
    18:00 +16°C° 0 mm 2 m/s 629 mmHg 60%
    19:00 +14°C° 0 mm 2 m/s 629 mmHg 64%
    20:00 +12°C° 0 mm 2 m/s 629 mmHg 68%
    21:00 +10°C° 0 mm 2 m/s 628 mmHg 72%
    22:00 +10°C° 0 mm 2 m/s 628 mmHg 71%
    23:00 +9°C° 0 mm 2 m/s 628 mmHg 69%

    19 Agosto, Domingo

    Tempo Temperatura Precipitação Vento Pressão Humidade
    00:00 +9°C° 0 mm 2 m/s 628 mmHg 68%
    01:00 +9°C° 0 mm 2 m/s 628 mmHg 67%
    02:00 +9°C° 0 mm 2 m/s 628 mmHg 65%
    03:00 +8°C° 0 mm 2 m/s 628 mmHg 64%
    04:00 +8°C° 0 mm 2 m/s 628 mmHg 64%
    05:00 +9°C° 0 mm 2 m/s 628 mmHg 64%
    06:00 +9°C° 0 mm 2 m/s 628 mmHg 63%
    07:00 +12°C° 0 mm 2 m/s 629 mmHg 57%
    08:00 +15°C° 0 mm 2 m/s 630 mmHg 51%
    09:00 +18°C° 0 mm 2 m/s 631 mmHg 45%
    10:00 +19°C° 0 mm 2 m/s 632 mmHg 43%
    11:00 +20°C° 0 mm 2 m/s 632 mmHg 41%
    12:00 +21°C° 0 mm 2 m/s 632 mmHg 40%
    13:00 +21°C° 0 mm 2 m/s 632 mmHg 41%
    14:00 +21°C° 0 mm 2 m/s 632 mmHg 42%
    15:00 +21°C° 0 mm 2 m/s 631 mmHg 44%
    16:00 +20°C° 0 mm 2 m/s 631 mmHg 50%
    17:00 +18°C° 0 mm 2 m/s 630 mmHg 57%
    18:00 +17°C° 0 mm 2 m/s 630 mmHg 63%
    19:00 +15°C° 0 mm 2 m/s 630 mmHg 68%
    20:00 +14°C° 0 mm 2 m/s 629 mmHg 73%
    21:00 +12°C° 0 mm 2 m/s 629 mmHg 79%
    22:00 +12°C° 0 mm 2 m/s 629 mmHg 78%
    23:00 +10°C° 0 mm 2 m/s 629 mmHg 77%

    20 Agosto, Segunda-feira

    Tempo Temperatura Precipitação Vento Pressão Humidade
    00:00 +10°C° 0 mm 2 m/s 629 mmHg 76%
    01:00 +10°C° 0 mm 2 m/s 628 mmHg 75%
    02:00 +10°C° 0 mm 2 m/s 628 mmHg 74%
    03:00 +9°C° 0 mm 2 m/s 628 mmHg 74%
    04:00 +10°C° 0 mm 2 m/s 628 mmHg 74%
    05:00 +10°C° 0 mm 2 m/s 628 mmHg 73%
    06:00 +10°C° 0 mm 2 m/s 629 mmHg 73%
    07:00 +14°C° 0 mm 2 m/s 630 mmHg 65%
    08:00 +16°C° 0 mm 2 m/s 631 mmHg 56%
    09:00 +19°C° 0 mm 2 m/s 632 mmHg 47%
    10:00 +20°C° 0 mm 2 m/s 632 mmHg 44%
    11:00 +21°C° 0 mm 2 m/s 632 mmHg 42%
    12:00 +23°C° 0 mm 2 m/s 632 mmHg 39%
    13:00 +23°C° 0 mm 2 m/s 632 mmHg 41%
    14:00 +23°C° 0 mm 2 m/s 632 mmHg 42%
    15:00 +23°C° 0 mm 2 m/s 631 mmHg 43%
    16:00 +20°C° 0,1 mm 2 m/s 631 mmHg 50%
    17:00 +20°C° 0,1 mm 1 m/s 630 mmHg 56%
    18:00 +19°C° 0,1 mm 1 m/s 630 mmHg 63%
    19:00 +16°C° 0 mm 1 m/s 629 mmHg 67%
    20:00 +15°C° 0 mm 2 m/s 629 mmHg 71%
    21:00 +14°C° 0 mm 2 m/s 629 mmHg 75%
    22:00 +13°C° 0 mm 2 m/s 629 mmHg 76%
    23:00 +13°C° 0 mm 2 m/s 628 mmHg 76%

    21 Agosto, Terça-feira

    Tempo Temperatura Precipitação Vento Pressão Humidade
    00:00 +12°C° 0 mm 2 m/s 628 mmHg 77%
    01:00 +12°C° 0 mm 2 m/s 628 mmHg 75%
    02:00 +12°C° 0 mm 2 m/s 628 mmHg 74%
    03:00 +12°C° 0 mm 2 m/s 627 mmHg 73%
    04:00 +12°C° 0 mm 1 m/s 628 mmHg 72%
    05:00 +12°C° 0 mm 1 m/s 628 mmHg 71%
    06:00 +12°C° 0 mm 1 m/s 628 mmHg 69%
    07:00 +15°C° 0 mm 1 m/s 629 mmHg 62%
    08:00 +19°C° 0 mm 1 m/s 630 mmHg 54%
    09:00 +21°C° 0 mm 1 m/s 631 mmHg 46%
    10:00 +22°C° 0 mm 1 m/s 631 mmHg 45%
    11:00 +23°C° 0 mm 1 m/s 631 mmHg 44%
    12:00 +23°C° 0 mm 2 m/s 631 mmHg 43%
    13:00 +23°C° 0,2 mm 1 m/s 631 mmHg 47%
    14:00 +22°C° 0,2 mm 1 m/s 630 mmHg 51%
    15:00 +22°C° 0,2 mm 1 m/s 630 mmHg 55%
    16:00 +21°C° 0,5 mm 1 m/s 629 mmHg 59%
    17:00 +20°C° 0,5 mm 1 m/s 629 mmHg 63%
    18:00 +19°C° 0,5 mm 1 m/s 628 mmHg 67%
    19:00 +18°C° 0,4 mm 1 m/s 628 mmHg 71%
    20:00 +15°C° 0,4 mm 1 m/s 628 mmHg 75%
    21:00 +14°C° 0,4 mm 1 m/s 628 mmHg 78%
    22:00 +14°C° 0,2 mm 1 m/s 628 mmHg 79%
    23:00 +13°C° 0,2 mm 1 m/s 627 mmHg 80%
    Mostrar mais